Location: Zagreb
(45.8000°N, 16.0000°E)
Time: 05:05:41
(UTC+02:00)

Vanguard 2 Rocket - Pass Details

Date: 11 August 2022
Orbit: 553 x 3323 km, 32.9° (Epoch: 30 September)

Event Time Altitude Azimuth Distance (km) Brightness Sun altitude
Rises 21:47:57 0° 277° (W) 7,105 12.4 -15.1°
Reaches altitude 10° 21:54:51 10° 264° (W) 5,743 11.5 -16.0°
Maximum altitude 22:05:08 20° 226° (SW) 4,183 10.2 -17.3°
Drops below altitude 10° 22:12:56 10° 185° (S) 4,185 9.9 -18.3°
Enters shadow 22:13:45 - 181° (S) 4,270 9.9 -18.4°
